Temperature
20 20 20 19 19 19 19 20 20 20 20 20 20 19 18 17 16 16 15 15 14 14 14 14 14 14 14 13 13 13 13 13 13 13 13 13 13 13 13 13 13 12 12 12
19 19 19 19 19 19 19 19 19 19 19 20 19 18 17 17 16 15 15 14 14 14 14 14 14 14 13 13 13 13 13 13 13 12 12 12 12 12 12 12 12 12 12 12
19 19 18 19 19 19 19 19 19 19 19 19 18 17 17 16 15 15 14 14 14 14 13 14 13 13 13 13 13 12 12 12 12 12 12 12 12 12 12 12 12 12 12 12
18 18 18 19 19 18 18 18 18 18 18 18 17 16 15 15 15 14 13 13 13 13 13 13 13 13 13 13 12 12 12 12 12 12 11 12 12 11 11 12 12 12 12 12
18 18 18 18 18 17 17 18 18 17 17 16 15 15 16 14 14 14 13 13 13 13 12 12 12 12 12 12 12 12 11 11 11 11 11 11 11 11 11 11 11 11 11 11
17 17 17 18 17 16 17 17 17 16 16 15 15 17 17 14 13 13 12 12 12 12 12 12 12 12 12 12 12 11 11 11 11 11 11 11 11 10 10 10 11 11 11 11
16 17 18 17 15 15 16 17 16 15 15 14 15 15 14 13 12 12 12 12 12 12 12 12 11 11 11 11 11 11 11 11 11 11 10 10 10 10 10 10 10 10 10 10
16 16 17 16 15 16 17 15 14 14 14 14 13 13 12 12 12 11 11 11 11 11 11 11 11 11 11 10 10 10 10 10 10 10 10 10 10 10 10 9 9 9 9 9
17 17 16 14 15 14 14 14 14 13 13 12 12 12 12 11 11 11 11 11 11 10 10 10 10 10 10 10 10 10 10 10 10 10 10 10 9 9 9 9 9 9 9 9
15 16 15 14 13 13 13 13 12 12 12 12 12 11 11 11 11 10 10 10 10 10 10 10 10 10 10 10 10 9 9 10 9 9 9 9 9 9 9 8 8 8 8 8
15 15 14 13 13 12 12 12 12 12 11 11 11 11 11 10 10 10 10 10 10 10 9 9 9 9 9 9 9 9 9 9 9 9 9 9 9 8 8 8 8 8 8 8
15 15 15 14 13 12 12 11 11 11 11 11 11 11 10 10 10 10 9 9 9 9 9 9 9 9 9 9 9 9 9 9 9 8 8 8 8 8 8 8 8 8 8 7
13 13 12 12 12 11 11 11 11 11 11 10 10 10 10 10 9 9 9 9 9 8 8 8 8 8 9 9 9 8 8 8 8 8 8 8 8 8 8 8 7 7 7 7
11 11 11 11 11 11 10 10 10 10 10 10 10 9 9 9 9 9 8 8 8 8 8 8 8 8 8 8 8 8 8 8 8 8 8 7 7 7 7 7 7 7 7 7
11 11 11 10 10 10 10 10 10 10 9 9 9 9 9 8 8 8 8 8 7 7 7 7 8 8 8 8 8 8 8 7 7 7 7 7 7 7 7 7 6 6 6 7
10 10 10 10 9 9 9 9 9 9 9 9 8 8 8 8 8 8 7 7 7 7 7 7 7 7 8 7 7 7 7 7 7 7 6 6 6 6 6 6 6 6 6 6
10 10 9 9 9 9 9 9 8 8 8 8 8 8 8 7 7 7 7 7 6 6 6 7 7 7 7 7 7 7 7 6 6 6 6 6 6 6 6 5 5 5 5 5
9 9 9 9 9 8 8 8 8 8 7 7 7 7 7 7 7 7 6 6 6 6 6 6 6 6 6 6 6 6 6 6 6 6 6 5 5 5 5 5 5 5 5 5
9 9 8 8 8 8 8 7 7 7 7 7 7 7 6 6 6 6 6 6 5 6 6 6 6 6 6 6 6 6 5 5 5 5 5 5 5 5 5 5 4 4 4 4
8 8 8 8 8 7 7 7 7 6 6 6 6 6 6 6 6 6 6 5 5 5 5 5 5 5 5 5 5 5 5 5 5 5 5 4 4 4 4 4 4 4 4 4
8 8 8 7 7 7 7 7 6 6 6 6 6 6 5 5 5 5 5 5 5 5 5 5 5 5 5 5 5 5 4 4 4 4 4 4 4 4 4 3 3 3 3 3
7 7 7 7 7 6 6 6 6 6 5 5 5 5 5 5 5 5 5 5 5 5 5 4 4 4 4 4 4 4 4 4 4 3 3 3 3 3 3 3 3 3 3 3
7 7 6 6 6 6 6 6 6 5 5 5 5 5 5 4 4 4 4 4 4 4 4 4 4 4 4 4 3 3 3 3 3 3 3 3 3 3 3 3 3 3 3 3
6 6 6 6 6 5 5 5 5 5 5 5 5 5 4 4 4 4 4 4 4 4 4 4 3 3 3 3 3 3 3 3 3 3 3 3 3 2 2 2 2 2 2 2
6 6 5 5 5 5 5 5 5 5 4 4 4 4 4 4 4 4 4 3 3 3 3 3 3 3 3 3 3 3 3 3 2 2 2 2 2 2 2 2 2 2 2 2
5 5 5 5 5 5 4 4 4 4 4 4 4 4 4 3 3 3 3 3 3 3 3 3 3 3 2 2 2 2 2 2 2 2 2 2 2 2 2 2 2 2 2 2
4 4 4 4 4 4 4 4 4 4 4 3 3 3 3 3 3 3 3 3 3 2 2 2 2 2 2 2 2 2 2 2 2 2 2 2 2 2 1 2 2 2 2 2
Wind_Speed
8 8 7 10 10 10 12 12 11 11 11 10 8 7 5 4 3 3 3 3 3 3 3 2 1 1 1 2 2 2 3 3 3 3 3 4 4 4 4 4 4 4 3 3
8 7 7 11 12 11 12 12 12 12 11 8 6 4 3 3 2 3 3 3 3 3 3 3 2 2 2 1 2 2 2 3 2 3 3 3 3 3 3 3 3 3 3 3
7 5 7 9 8 9 8 7 8 9 7 5 5 4 4 2 2 3 3 3 3 3 3 3 3 2 2 2 2 2 2 2 3 3 3 3 3 3 3 3 3 3 3 3
6 6 9 2 1 3 7 7 7 7 6 6 6 4 3 3 3 3 3 3 3 3 3 3 3 2 2 2 2 2 2 2 2 3 3 3 3 3 3 3 3 3 3 4
6 8 8 5 2 3 5 6 5 6 6 4 3 4 3 2 3 3 3 3 3 2 2 2 2 2 2 2 2 2 2 3 3 3 3 4 4 4 3 3 3 3 3 3
6 8 7 2 2 0 4 6 1 3 4 4 4 6 3 2 3 3 3 2 2 2 1 2 2 2 3 3 3 3 3 3 3 3 3 4 4 4 3 3 3 3 3 3
9 9 7 0 1 3 5 3 2 3 4 4 6 6 5 4 4 3 2 2 2 1 1 2 2 2 3 3 3 3 3 3 3 3 3 4 3 3 3 3 4 4 3 3
7 8 6 3 3 4 3 4 4 5 5 5 5 4 3 3 3 2 2 2 2 2 1 2 2 3 3 3 3 3 2 3 3 3 3 3 3 3 3 3 4 4 4 4
6 5 1 2 2 3 4 5 6 5 5 5 5 4 3 3 3 3 2 2 2 2 2 2 2 3 3 2 2 2 3 3 3 3 3 3 4 4 3 4 4 4 4 4
6 7 5 4 5 5 5 6 6 5 4 4 5 5 4 3 3 3 3 3 3 3 3 3 2 2 2 2 2 3 4 4 4 4 3 3 3 4 4 4 4 4 4 4
8 8 6 5 5 5 5 5 5 5 4 4 4 4 4 4 3 3 2 2 3 3 3 3 2 2 2 2 3 4 4 4 4 3 3 3 3 3 4 4 4 4 4 4
9 7 7 7 5 5 5 5 5 5 5 4 4 4 4 3 3 2 2 2 3 3 3 3 2 2 2 3 3 4 3 3 3 3 3 3 3 2 1 2 0 1 2 3
9 7 7 7 6 6 6 5 5 5 5 4 4 3 3 2 2 2 2 2 3 3 3 3 2 2 3 3 3 4 4 3 2 3 3 3 4 4 3 2 2 2 3 3
8 7 7 7 6 6 5 4 4 3 3 3 2 2 2 2 1 2 2 2 3 3 3 3 3 3 3 3 3 4 4 3 3 3 3 3 4 4 4 3 3 3 3 4
7 7 6 5 5 5 4 3 2 2 2 2 2 2 2 2 2 2 2 2 2 2 3 3 3 4 3 3 3 3 3 3 3 3 3 3 3 3 3 4 4 3 3 2
5 5 5 5 5 4 3 3 3 3 2 3 3 2 2 2 2 2 2 2 2 3 3 3 4 4 3 3 3 3 3 3 3 3 3 3 3 3 4 4 4 4 4 3
6 6 5 5 5 4 4 4 4 4 3 3 3 2 2 2 2 2 2 2 3 3 3 3 4 3 3 3 3 3 3 3 4 4 3 4 4 4 4 4 4 4 4 3
6 6 5 5 5 4 4 3 3 3 3 3 2 2 2 2 2 3 3 2 3 3 3 3 3 3 3 3 3 3 3 3 3 3 3 4 4 4 4 5 5 5 5 4
4 4 4 4 4 4 3 3 3 2 2 2 2 2 2 2 3 3 3 3 3 4 3 3 4 3 3 3 3 3 3 3 3 4 4 4 4 4 4 5 5 5 5 5
4 3 3 2 2 3 3 2 2 2 2 2 2 2 2 3 3 3 3 3 3 3 3 3 4 4 4 3 3 3 3 4 4 4 4 4 4 4 5 5 5 5 6 6
3 3 3 2 2 2 2 2 2 2 2 2 3 3 3 3 3 3 3 3 3 3 3 3 3 3 3 3 3 3 4 4 4 5 5 4 4 5 5 5 5 6 6 6
2 2 2 2 2 2 2 2 2 2 2 2 3 3 3 3 3 3 4 3 3 3 3 3 3 4 4 4 3 4 4 4 4 5 5 4 4 5 5 6 6 6 6 7
2 3 3 3 2 2 2 2 2 3 3 3 3 4 4 3 3 3 4 3 3 3 3 3 4 5 5 4 4 4 5 5 5 5 5 5 5 5 6 7 6 7 7 7
3 3 3 3 3 3 3 3 3 3 3 3 3 4 4 3 3 3 3 3 3 4 4 4 4 5 5 4 4 4 5 5 5 5 5 5 5 5 6 6 6 6 7 8
3 3 3 4 4 3 3 3 3 3 3 3 3 4 4 4 4 4 4 4 4 4 4 4 5 5 5 4 4 5 5 5 5 6 5 5 5 6 6 6 6 7 7 7
4 4 4 4 4 3 3 3 3 3 3 3 3 3 3 3 4 4 4 4 5 5 4 4 4 5 5 5 5 5 5 6 6 6 6 6 6 6 6 6 8 7 7 7
4 4 3 3 4 3 3 4 4 4 4 4 4 4 3 3 3 4 4 4 4 4 4 4 4 4 5 5 5 5 5 6 6 6 6 6 6 6 6 7 7 7 7 7
Wind_Direction
268 273 257 257 254 242 242 255 263 271 276 288 294 296 288 268 246 229 223 219 218 221 224 226 228 250 265 252 239 213 198 203 209 213 213 212 205 205 209 212 216 219 218 222
260 254 254 257 256 250 248 253 256 266 273 294 303 297 280 261 241 236 243 245 240 233 231 238 240 245 254 242 236 211 207 212 208 205 207 210 208 201 204 207 212 215 217 218
259 258 264 254 247 236 230 236 250 261 278 304 302 300 293 281 252 254 262 268 257 245 239 244 248 250 252 243 226 212 216 213 206 201 206 212 205 201 204 208 212 219 215 219
262 258 250 266 74 245 244 254 257 265 279 288 297 297 291 279 269 267 267 272 273 268 260 252 250 252 247 229 218 222 229 221 213 206 206 205 205 211 215 219 215 218 223 223
247 256 263 261 230 222 247 264 264 263 275 292 301 272 264 297 296 277 268 274 277 274 269 257 246 237 228 225 224 229 239 238 226 218 208 204 209 215 217 216 218 223 226 231
240 253 257 250 122 259 263 256 259 260 272 278 272 266 288 334 315 295 279 274 269 265 265 249 239 226 225 228 233 241 246 243 237 226 218 216 217 217 215 213 217 221 222 229
242 250 259 253 143 200 241 293 12 291 274 263 270 295 307 302 296 291 282 280 262 237 243 250 236 224 227 234 242 250 254 253 246 236 230 229 223 217 213 213 218 224 225 231
230 240 248 126 170 223 296 338 319 300 283 274 289 303 295 293 291 286 281 272 247 230 238 249 226 220 228 241 255 249 240 243 241 235 232 224 214 218 217 215 219 226 231 234
231 250 3 161 228 299 316 303 305 299 291 282 282 287 293 289 285 278 268 261 249 236 235 238 231 229 235 244 246 237 231 240 243 236 232 227 218 218 217 219 224 230 232 235
245 250 252 256 258 271 286 295 302 296 288 274 274 282 284 279 275 272 265 247 234 222 225 237 243 247 256 255 241 235 239 244 238 236 238 230 221 216 216 219 223 228 231 235
251 261 267 252 256 266 285 297 298 294 283 275 272 275 271 267 266 268 261 245 233 225 225 235 241 260 274 262 244 242 243 242 241 240 243 238 226 226 227 229 231 231 233 234
256 264 268 277 281 279 283 288 290 290 291 286 274 272 272 264 255 256 254 245 236 236 234 232 235 257 272 270 252 247 247 243 241 244 248 238 218 213 196 240 251 256 277 267
265 275 275 278 279 277 279 283 285 283 279 282 282 272 266 263 250 249 251 250 245 244 245 244 239 255 267 261 250 247 248 244 242 244 248 239 223 224 236 235 213 227 239 240
253 257 262 261 265 274 278 280 282 287 286 283 287 282 271 255 249 260 268 270 261 253 252 250 249 259 268 260 250 248 248 240 242 245 247 250 233 232 236 242 248 254 232 217
246 248 255 260 261 267 272 270 268 281 293 301 303 296 278 259 257 278 287 283 268 258 257 259 261 266 266 255 255 256 256 246 244 251 252 253 244 238 240 241 246 253 260 235
246 244 241 243 250 256 254 250 257 266 271 283 293 296 289 277 274 282 290 282 266 266 269 268 270 275 266 254 255 260 262 257 252 253 251 253 247 239 240 244 245 248 250 253
231 233 233 236 242 247 252 253 256 258 263 269 278 283 282 277 278 286 292 291 281 276 273 273 279 285 270 258 258 259 261 255 240 249 251 253 251 246 247 246 249 255 258 250
238 241 243 243 242 244 249 251 254 260 262 264 263 254 255 267 275 283 299 304 300 298 297 297 300 297 281 271 268 262 254 256 256 256 261 259 258 249 247 249 253 257 264 256
225 230 240 247 245 245 248 249 256 267 267 253 240 239 252 272 281 281 286 284 283 290 307 324 327 304 293 292 293 268 258 260 263 266 267 259 253 252 253 254 256 258 259 259
218 222 229 239 241 242 246 250 252 258 263 254 240 247 269 279 278 275 275 274 280 292 304 318 312 303 298 296 292 275 267 265 267 270 267 257 252 254 257 258 259 261 262 260
218 219 221 232 241 245 245 242 236 245 255 248 243 256 271 281 278 271 269 278 290 309 309 312 303 304 302 305 285 279 276 273 272 273 269 261 257 256 258 258 260 262 263 264
231 227 227 230 229 253 266 257 244 241 242 246 252 258 264 270 273 274 271 274 290 308 302 295 299 314 318 307 285 282 281 279 276 275 270 262 259 258 259 262 262 263 263 263
239 239 240 241 242 251 266 264 251 246 247 248 248 250 256 266 268 266 274 281 291 301 297 292 308 314 309 296 287 284 282 281 280 279 275 267 262 260 261 262 263 263 264 263
245 248 248 247 237 235 247 260 266 264 259 259 252 251 253 258 262 261 274 278 281 288 289 292 297 298 294 288 286 284 284 284 283 282 281 276 271 268 267 267 267 267 266 266
242 242 238 235 235 239 246 254 261 263 264 261 259 261 259 251 252 260 267 270 272 276 284 288 288 290 288 286 286 287 287 287 287 286 284 280 276 274 272 271 271 271 270 268
244 243 241 241 244 245 245 246 249 254 257 260 264 264 263 260 254 253 255 256 256 265 275 280 280 279 281 283 285 286 287 288 287 285 282 282 277 275 274 275 276 274 273 271
248 248 245 248 250 245 243 245 248 253 255 255 263 266 264 262 259 257 258 259 260 261 266 270 271 273 277 280 282 283 285 286 285 284 284 283 282 279 277 277 277 276 275 274
Height
1509 1508 1510 1510 1510 1511 1511 1508 1509 1505 1505 1504 1504 1506 1508 1509 1509 1510 1511 1511 1511 1512 1512 1513 1513 1513 1513 1513 1513 1513 1514 1514 1515 1516 1516 1517 1518 1519 1520 1521 1522 1522 1523 1523
1510 1509 1510 1510 1507 1507 1508 1507 1505 1505 1504 1503 1504 1506 1506 1507 1507 1508 1509 1509 1509 1510 1510 1510 1511 1511 1511 1511 1511 1511 1511 1512 1512 1513 1513 1514 1515 1516 1517 1518 1519 1519 1520 1521
1508 1508 1509 1507 1502 1503 1504 1503 1503 1504 1503 1503 1504 1505 1505 1505 1506 1506 1507 1507 1507 1508 1508 1508 1509 1509 1509 1509 1509 1509 1509 1510 1510 1510 1511 1512 1512 1513 1514 1515 1516 1517 1517 1518
1508 1509 1512 1501 1500 1501 1502 1501 1502 1502 1502 1504 1504 1505 1504 1504 1504 1504 1505 1505 1505 1506 1506 1506 1506 1507 1507 1507 1507 1507 1507 1507 1508 1508 1508 1509 1509 1510 1511 1512 1513 1513 1514 1515
1508 1507 1503 1500 1500 1502 1502 1501 1501 1501 1502 1503 1503 1502 1501 1502 1502 1503 1503 1503 1503 1503 1503 1503 1504 1504 1505 1505 1505 1505 1505 1505 1506 1506 1506 1506 1506 1507 1508 1509 1510 1511 1511 1512
1508 1509 1505 1498 1500 1502 1503 1500 1500 1500 1501 1501 1501 1498 1498 1500 1500 1500 1501 1501 1501 1501 1501 1501 1501 1502 1502 1502 1502 1503 1503 1503 1503 1503 1503 1503 1503 1504 1505 1506 1507 1508 1508 1509
1506 1505 1497 1497 1501 1503 1504 1498 1500 1499 1500 1500 1499 1498 1499 1498 1498 1498 1498 1498 1498 1498 1498 1498 1499 1499 1499 1499 1499 1500 1500 1500 1500 1500 1500 1501 1501 1502 1502 1503 1504 1505 1505 1505
1502 1503 1500 1498 1500 1500 1498 1498 1498 1498 1498 1498 1497 1497 1496 1496 1495 1495 1495 1495 1495 1495 1495 1496 1496 1496 1496 1497 1497 1497 1497 1497 1497 1497 1497 1498 1498 1499 1499 1500 1501 1501 1502 1502
1497 1497 1496 1497 1498 1498 1499 1498 1497 1496 1496 1496 1495 1494 1494 1493 1493 1493 1492 1492 1492 1492 1493 1493 1493 1493 1494 1494 1494 1494 1494 1494 1494 1494 1494 1495 1495 1495 1496 1496 1497 1497 1498 1498
1496 1493 1495 1497 1497 1497 1497 1496 1495 1494 1493 1493 1492 1491 1491 1491 1490 1490 1490 1490 1490 1490 1490 1490 1490 1491 1491 1491 1491 1491 1491 1491 1491 1491 1491 1491 1491 1491 1492 1492 1493 1494 1494 1494
1492 1492 1494 1494 1494 1494 1494 1493 1492 1491 1491 1490 1489 1488 1488 1488 1488 1487 1487 1487 1487 1487 1487 1487 1487 1487 1488 1488 1488 1488 1488 1488 1488 1488 1487 1487 1488 1488 1488 1489 1489 1489 1490 1490
1488 1489 1490 1490 1491 1491 1491 1490 1489 1488 1487 1487 1486 1485 1485 1485 1484 1484 1484 1484 1484 1484 1484 1484 1484 1485 1485 1485 1485 1485 1485 1485 1485 1484 1484 1484 1484 1484 1484 1485 1485 1485 1486 1486
1487 1487 1488 1488 1488 1488 1487 1487 1486 1486 1485 1484 1483 1483 1482 1482 1482 1482 1482 1482 1481 1481 1481 1481 1481 1481 1481 1482 1481 1481 1481 1481 1481 1481 1480 1480 1480 1480 1481 1481 1481 1481 1481 1481
1484 1485 1484 1484 1485 1484 1484 1483 1483 1482 1482 1481 1480 1480 1479 1479 1479 1479 1479 1479 1478 1478 1478 1478 1478 1478 1478 1478 1478 1478 1477 1477 1477 1477 1477 1477 1477 1477 1477 1477 1477 1477 1477 1477
1480 1481 1481 1481 1481 1481 1481 1480 1480 1479 1479 1479 1478 1478 1477 1476 1476 1476 1476 1476 1476 1475 1475 1475 1475 1475 1475 1474 1474 1474 1474 1474 1474 1473 1473 1473 1473 1473 1473 1473 1473 1473 1473 1473
1476 1477 1477 1477 1477 1477 1477 1477 1476 1476 1476 1476 1475 1475 1475 1474 1474 1474 1473 1473 1473 1473 1472 1472 1472 1471 1471 1471 1471 1470 1470 1470 1470 1470 1469 1469 1469 1469 1469 1469 1469 1469 1468 1468
1473 1473 1473 1474 1474 1474 1473 1473 1473 1473 1472 1472 1472 1472 1472 1472 1471 1471 1471 1471 1470 1470 1469 1469 1468 1468 1467 1467 1467 1467 1466 1466 1466 1465 1465 1465 1465 1465 1465 1465 1464 1464 1464 1464
1469 1469 1470 1470 1470 1470 1470 1470 1470 1470 1469 1469 1469 1469 1469 1469 1469 1468 1468 1468 1467 1467 1466 1466 1465 1464 1464 1463 1463 1463 1462 1462 1462 1461 1461 1461 1460 1460 1460 1460 1460 1460 1459 1459
1465 1466 1466 1466 1466 1467 1466 1467 1467 1467 1466 1466 1466 1466 1466 1466 1466 1466 1465 1465 1464 1463 1463 1462 1461 1461 1460 1460 1459 1459 1458 1458 1457 1457 1457 1456 1456 1455 1455 1455 1455 1455 1454 1454
1462 1463 1463 1463 1463 1463 1463 1463 1463 1463 1463 1463 1463 1463 1463 1463 1463 1463 1462 1462 1461 1461 1460 1459 1458 1458 1457 1456 1455 1455 1454 1454 1453 1452 1452 1451 1451 1451 1451 1451 1450 1450 1449 1449
1460 1460 1460 1460 1460 1460 1460 1460 1460 1460 1460 1461 1460 1460 1460 1460 1460 1460 1459 1459 1458 1458 1457 1456 1455 1454 1453 1453 1452 1451 1450 1449 1449 1448 1447 1447 1446 1446 1446 1446 1445 1445 1444 1444
1457 1457 1457 1457 1457 1457 1457 1458 1458 1458 1458 1458 1458 1458 1458 1457 1457 1457 1456 1456 1455 1454 1454 1453 1452 1451 1450 1449 1448 1447 1446 1445 1444 1444 1443 1442 1442 1441 1441 1441 1440 1440 1439 1438
1455 1455 1455 1455 1455 1455 1455 1455 1455 1455 1455 1455 1455 1455 1455 1454 1454 1454 1453 1453 1452 1451 1450 1450 1449 1448 1447 1446 1445 1443 1442 1441 1440 1439 1438 1437 1437 1437 1436 1436 1435 1434 1433 1433
1452 1453 1453 1452 1452 1452 1452 1452 1452 1452 1452 1452 1452 1452 1451 1451 1451 1450 1450 1449 1448 1448 1447 1446 1445 1444 1443 1442 1441 1440 1439 1437 1436 1435 1434 1433 1432 1432 1431 1430 1429 1429 1428 1427
1449 1449 1449 1449 1449 1449 1449 1449 1449 1449 1449 1448 1448 1448 1448 1448 1447 1447 1446 1445 1445 1444 1443 1442 1441 1440 1440 1439 1437 1436 1435 1433 1432 1431 1429 1428 1427 1427 1426 1425 1424 1423 1422 1421
1446 1446 1446 1446 1446 1445 1445 1445 1445 1445 1445 1445 1444 1444 1444 1444 1443 1443 1442 1441 1441 1440 1439 1438 1437 1436 1435 1434 1433 1432 1431 1429 1428 1427 1425 1424 1423 1422 1420 1419 1418 1417 1416 1415
1442 1442 1442 1442 1442 1442 1442 1442 1442 1442 1441 1441 1441 1441 1440 1440 1439 1439 1438 1437 1437 1436 1435 1435 1434 1433 1431 1430 1429 1428 1426 1425 1423 1422 1421 1419 1418 1417 1415 1414 1413 1411 1410 1409